Other Public Products
Issued by NWS Charleston, SC

Current Version | Previous Version | Graphics & Text | Print | Product List | Glossary On
Versions: 1 2 3 4 5 6 7 8 9 10 11 12 13 14 15 16 17 18 19 20 21 22 23 24 25 26 27 28 29 30 31 32 33 34 35 36 37 38 39 40 41 42 43 44 45 46 47 48 49 50
000 FPUS82 KCHS 250612 OPUCHS TEST...KCHS/KSAV Gateway Observations...TEST National Weather Service Charleston SC 200 AM EDT SUN JUN 25 2017 NOTE: "fair" indicates few or no clouds below 12,000 feet with no significant weather and/or obstructions to visibility. SCZ050-WAZ558-NCZ071-TXZ119-213-PAZ071-DCZ001-FLZ074-172-MI076- NYZ176-178-MAZ016-IL014-TNZ027-NJZ106-GAZ044-MD014-250700- ...Gateway Observations for Charleston International... CITY SKY/WX TMP DP RH WIND PRES REMARKS Chas Airport MOCLDY 77 75 93 SW6 30.05S 6HR MIN TEMP: 77; 6HR MAX TEMP: 84; 6HR PCP: 0.16; Seattle CLEAR 76 51 41 N14 29.98F 6HR MIN TEMP: 74; 6HR MAX TEMP: 89; Charlotte CLOUDY 70 67 90 CALM 30.05F 6HR MIN TEMP: 70; 6HR MAX TEMP: 78; 6HR PCP: TRACE; Dallas DFW PTCLDY 74 64 71 E6 30.17R 6HR MIN TEMP: 73; 6HR MAX TEMP: 83; Dallas Love PTCLDY 75 63 66 NE3 30.18R 6HR MIN TEMP: 75; 6HR MAX TEMP: 83; Philladelphia PTCLDY 74 61 63 W8 29.93S 6HR MIN TEMP: 73; 6HR MAX TEMP: 83; Wash National PTCLDY 79 57 46 W6 29.97S 6HR MIN TEMP: 74; 6HR MAX TEMP: 84; Baltimore PTCLDY 70 61 73 W5 29.96S 6HR MIN TEMP: 65; 6HR MAX TEMP: 80; Miami PTCLDY 83 74 74 E12 30.09F 6HR MIN TEMP: 83; 6HR MAX TEMP: 85; Detroit MOCLDY 62 49 62 W9 30.01F 6HR MIN TEMP: 62; 6HR MAX TEMP: 73; Newark MOCLDY 74 58 57 NW6 29.91F 6HR MIN TEMP: 74; 6HR MAX TEMP: 83; Laguardia PTCLDY 73 61 65 NW5 29.91S 6HR MIN TEMP: 73; 6HR MAX TEMP: 85; J F K PTCLDY 74 60 61 N7 29.92S 6HR MIN TEMP: 72; 6HR MAX TEMP: 82; Boston Logan MOCLDY 74 54 49 W12 29.86R 6HR MIN TEMP: 73; 6HR MAX TEMP: 81; Ft. Lauderdale PTCLDY 83 75 77 SE13 30.08F HX 90 6HR MIN TEMP: 83; 6HR MAX TEMP: 84; Chicago O`Hare MOCLDY 59 51 75 W7 30.05S 6HR MIN TEMP: 59; 6HR MAX TEMP: 71; 6HR PCP: 0.02; Chicago Midway MOCLDY 63 49 60 W5 30.05F 6HR MIN TEMP: 62; 6HR MAX TEMP: 72; 6HR PCP: TRACE; Houston Bush MOCLDY 78 74 87 N3 30.10S 6HR MIN TEMP: 77; 6HR MAX TEMP: 84; Houston Hobby CLOUDY 79 75 87 CALM 30.09S 6HR MIN TEMP: 78; 6HR MAX TEMP: 85; 6HR PCP: 0.01; Nashville MOCLDY 69 54 58 N3 30.17S Atlanta MOCLDY 72 70 93 NW7 30.09F 6HR MIN TEMP: 71; 6HR MAX TEMP: 80; 6HR PCP: 0.12; $$ GAZ044-118-TXZ119-213-NCZ071-DCZ001-MDZ014-506-PAZ021-071-NJZ106- NYZ176-178-MAZ106-OHZ011-021-055-MIZ076-KYZ091-ILZ014-INZ047- MNZ060-ONZ431-250700- ...Gateway Observations for Savannah International... CITY SKY/WX TMP DP RH WIND PRES REMARKS Savannah Arpt CLEAR 80 73 79 CALM 30.05F 6HR MIN TEMP: 79; 6HR MAX TEMP: 90; Atlanta MOCLDY 72 70 93 NW7 30.09F 6HR MIN TEMP: 71; 6HR MAX TEMP: 80; 6HR PCP: 0.12; Charlotte CLOUDY 70 67 90 CALM 30.05F 6HR MIN TEMP: 70; 6HR MAX TEMP: 78; 6HR PCP: TRACE; Dallas DFW PTCLDY 74 64 71 E6 30.17R 6HR MIN TEMP: 73; 6HR MAX TEMP: 83; Houston Bush MOCLDY 78 74 87 N3 30.10S 6HR MIN TEMP: 77; 6HR MAX TEMP: 84; Wash National PTCLDY 79 57 46 W6 29.97S 6HR MIN TEMP: 74; 6HR MAX TEMP: 84; Wash Dulles PTCLDY 69 59 70 CALM 29.99R 6HR MIN TEMP: 66; 6HR MAX TEMP: 81; Baltimore PTCLDY 70 61 73 W5 29.96S 6HR MIN TEMP: 65; 6HR MAX TEMP: 80; Philadelphia PTCLDY 74 61 63 W8 29.93S 6HR MIN TEMP: 73; 6HR MAX TEMP: 83; Newark MOCLDY 74 58 57 NW6 29.91F 6HR MIN TEMP: 74; 6HR MAX TEMP: 83; Laguardia PTCLDY 73 61 65 NW5 29.91S 6HR MIN TEMP: 73; 6HR MAX TEMP: 85; J F K PTCLDY 74 60 61 N7 29.92S 6HR MIN TEMP: 72; 6HR MAX TEMP: 82; Boston MOCLDY 74 54 49 W12 29.86R 6HR MIN TEMP: 73; 6HR MAX TEMP: 81; Pittsburg MOCLDY 64 57 78 SW3 30.02R 6HR MIN TEMP: 64; 6HR MAX TEMP: 75; Akron PTCLDY 62 53 72 NW5 30.04R 6HR MIN TEMP: 61; 6HR MAX TEMP: 75; Cleveland PTCLDY 67 53 61 W7 30.03F 6HR MIN TEMP: 66; 6HR MAX TEMP: 77; Cincinnati CLEAR 61 52 72 W6 30.11S 6HR MIN TEMP: 60; 6HR MAX TEMP: 74; Columbus CLEAR 62 53 72 W7 30.07S Detroit MOCLDY 62 49 62 W9 30.01F 6HR MIN TEMP: 62; 6HR MAX TEMP: 73; Chicago O`Hare MOCLDY 59 51 75 W7 30.05S 6HR MIN TEMP: 59; 6HR MAX TEMP: 71; 6HR PCP: 0.02; Minneapolis MOCLDY 57 47 69 W7 30.08S 6HR MIN TEMP: 56; 6HR MAX TEMP: 64; Indianapolis CLEAR 59 48 67 SW6 30.12F 6HR MIN TEMP: 59; 6HR MAX TEMP: 72; Toronto Canada PTCLDY 61 54 77 W8 29.92S $$

USA.gov is the U.S. government's official web portal to all federal, state and local government web resources and services.